This demonstration page uses our WeatherBlox Daily Observations layout. Learn more.

Left ArrowRight Arrow

41.86663, -103.66717

Hourly Observations for July 21, 2018

Temp ( °F °C ) Dew Point ( °F °C ) Humidity (%) Winds ( mph kmh ) Pressure ( in mb ) Visibility ( mi km ) Precip ( " mm )
12:53 am 00:53 Cloudy 74 23.3 69 20.6 85 85 ESE 15 24 29.94 1014 10 16.0934 N/A
1:53 am 01:53 Clear 72 22.2 70 21.1 94 94 E 13 20 29.93 1013 10 16.0934 N/A
2:53 am 02:53 Clear 72 22.2 71 21.7 97 97 E 10 17 29.93 1014 10 16.0934 N/A
3:53 am 03:53 Clear 71 21.7 71 21.7 100 100 ESE 10 17 29.93 1014 9 14.48406 N/A
4:03 am 04:03 Partly Cloudy 71 21.7 71 21.7 100 100 ESE 10 17 29.88 1012 8 12.87472 N/A
4:13 am 04:13 Mostly Cloudy 71 21.7 71 21.7 100 100 ESE 12 19 29.88 1012 7 11.26538 N/A
4:53 am 04:53 Cloudy 71 21.7 71 21.7 100 100 ESE 12 19 29.93 1014 7 11.26538 N/A
5:36 am 05:36 Partly Cloudy 70 21 70 21 100 100 ESE 15 24 29.88 1012 7 11.26538 N/A
5:48 am 05:48 Mostly Cloudy with Mist and Fog 70 21 70 21 100 100 ESE 12 19 29.88 1012 5 8.0467 N/A
5:53 am 05:53 Mostly Cloudy with Mist and Fog 70 21.1 70 21.1 100 100 ESE 13 20 29.95 1014 5 8.0467 N/A
6:53 am 06:53 Mostly Cloudy with Mist and Fog 70 21.1 70 21.1 100 100 SE 12 19 29.95 1014 6 9.65604 N/A
7:32 am 07:32 Partly Cloudy 72 22 72 22 100 100 SE 14 22 29.91 1013 8 12.87472 N/A
7:53 am 07:53 Mostly Sunny 72 22.2 71 21.7 97 97 SE 13 20 29.96 1015 10 16.0934 N/A
8:28 am 08:28 Mostly Cloudy 73 22.8 71 21.7 94 94 SE 13 20 29.91 1013 10 16.0934 N/A
8:38 am 08:38 Partly Cloudy 72 22.2 70 21.1 94 94 SE 15 24 29.91 1013 10 16.0934 N/A
8:53 am 08:53 Mostly Sunny 72 22.2 71 21.7 97 97 ESE 15 24 29.96 1015 10 16.0934 N/A
9:53 am 09:53 Sunny 78 25.6 72 22.2 82 82 ESE 15 24 29.94 1014 10 16.0934 N/A
10:53 am 10:53 Sunny 83 28.3 72 22.2 70 70 SE 12 19 29.93 1014 10 16.0934 N/A
11:53 am 11:53 Sunny 87 30.6 68 20 53 53 SE 15 24 29.91 1013 10 16.0934 N/A
12:53 pm 12:53 Sunny 88 31.1 68 20 52 52 SE 15 24 29.89 1012 10 16.0934 N/A
1:53 pm 13:53 Sunny 92 33.3 69 20.6 47 47 SE 13 20 29.87 1012 10 16.0934 N/A
2:53 pm 14:53 Sunny 93 33.9 65 18.3 40 40 SE 17 28 29.85 1011 10 16.0934 N/A
3:53 pm 15:53 Sunny 91 32.8 67 19.4 45 45 ESE 18 30 29.84 1011 10 16.0934 N/A
4:53 pm 16:53 Sunny 87 30.6 66 18.9 50 50 SSE 16 26 29.86 1011 10 16.0934 N/A
5:53 pm 17:53 Sunny 85 29.4 67 19.4 55 55 ESE 13 20 29.85 1011 10 16.0934 N/A
6:53 pm 18:53 Sunny 82 27.8 71 21.7 69 69 ESE 10 17 29.87 1012 10 16.0934 N/A
7:53 pm 19:53 Sunny 82 27.8 67 19.4 60 60 SSE 7 11 29.87 1012 10 16.0934 N/A
8:53 pm 20:53 Clear 77 25 67 19.4 71 71 ESE 7 11 29.89 1012 10 16.0934 N/A
9:53 pm 21:53 Clear 73 22.8 68 20 84 84 E 9 15 29.9 1013 10 16.0934 N/A
10:53 pm 22:53 Clear 72 22.2 68 20 87 87 E 8 13 29.91 1013 10 16.0934 N/A
11:53 pm 23:53 Clear 71 21.7 68 20 90 90 E 3 6 29.91 1013 10 16.0934 N/A

Powered by AerisWeather